Regional Weather Roundup
Issued by NWS

Home | Current Version | Previous Version | Text Only | Print | Product List | Glossary On
Versions: 1 2 3 4 5 6 7 8 9 10 11 12 13 14 15 16 17 18 19 20 21 22 23 24 25 26 27
000
ASUS44 KLIX 290313
RWRLA
LOUISIANA WEATHER ROUNDUP
NATIONAL WEATHER SERVICE NEW ORLEANS LA
1000 PM CDT FRI APR 28 2017

NOTE: "FAIR" INDICATES FEW OR NO CLOUDS BELOW 12,000 FEET WITH NO
      SIGNIFICANT WEATHER AND/OR OBSTRUCTIONS TO VISIBILITY.
      SKY/WX - SKY CONDITION AND SIGNIFICANT WEATHER.
      TMP - AIR TEMPERATURE.    DP   - DEWPOINT TEMPERATURE.
      RH  - RELATIVE HUMIDITY.  PRES - PRESSURE.
      HX  - HEAT INDEX.         WCI  - WIND CHILL INDEX.

*  THESE STATIONS ARE NOT NWS OR FAA STATIONS AND ARE NOT UNDER
   NWS QUALITY CONTROL.

LAZ040-048-061>063-065-066-069-290400-
SOUTHEAST LOUISIANA

CITY           SKY/WX    TMP DP  RH WIND       PRES   REMARKS
N.O. INTL ARPT MOCLDY    79  74  84 SE13      29.93R
N.O. LAKEFRONT CLOUDY    79  75  87 SE12      29.95R
N.O. DOWNTOWN*   N/A     79  74  84 VRB5        N/A
RESERVE*       NOT AVBL
SLIDELL        CLOUDY    78  75  90 SE12      29.95R
BATON ROUGE    CLOUDY    80  73  79 SE16      29.89R
BOOTHVILLE     CLOUDY    77  76  96 SE8       29.96R
BELLE CHASSE   CLOUDY    78  76  93 SE9       29.94R
BOGALUSA*      NOT AVBL
GALLIANO*      CLOUDY    78  73  83 SE7       29.92R
NEW ROADS*     CLOUDY    79  73  83 SE12G17   29.88R
GONZALES*      CLOUDY    80  73  78 SE9       29.90R
HAMMOND*       CLOUDY    77  72  83 SE14      29.93R
HOUMA*         MOCLDY    78  74  88 SE14G21   29.91R
PORT FOURCHON* MOCLDY    77  75  94 SE14G21   29.91R FOG

$$

LAZ041-044-053-054-290400-
SOUTHWEST LOUISIANA

CITY           SKY/WX    TMP DP  RH WIND       PRES   REMARKS
LAKE CHARLES   LGT RAIN  77  76  96 SE16G24   29.81R FOG
LAFAYETTE      CLOUDY    83  75  77 S7G18     29.86R
PATTERSON      CLOUDY    79  75  87 SE14G22   29.89R
SALT POINT       N/A     78  74  87 SE17G23   29.85R
NEW IBERIA     CLOUDY    80  73  79 SE20      29.87R
CHENAULT AIRPK CLOUDY    66  66 100 MISG      29.81R

$$

LAZ027-028-290400-
CENTRAL LOUISIANA

CITY           SKY/WX    TMP DP  RH WIND       PRES   REMARKS
FORT POLK      CLOUDY    78  74  85 SE17      29.80R
ALEXANDRIA INT CLOUDY    79  73  82 SE14      29.81R
ALEXANDRIA     CLOUDY    80  74  81 S12       29.83R

$$

LAZ001-002-290400-
NORTHWEST LOUISIANA

CITY           SKY/WX    TMP DP  RH WIND       PRES   REMARKS
SHREVEPORT     CLOUDY    81  73  76 S18       29.72R
BARKSDALE AFB  PTCLDY    80  73  77 S18G25    29.73R
DTN SHREVEPORT CLOUDY    82  72  71 S14G24    29.73R

$$

LAZ014-016-290400-
NORTHEAST LOUISIANA

CITY           SKY/WX    TMP DP  RH WIND       PRES   REMARKS
MONROE         CLEAR     81  71  71 S10G20    29.82R
TALLULAH       PTCLDY    79  71  76 S14       29.86R

$$





USA.gov is the U.S. government's official web portal to all federal, state and local government web resources and services.